NOAA 16 DEB, 41502

Orbit data source: Space-Track

NOAA 16 DEB, 41502 is space debris in SSO originally from a launch on Thu, 21 Sep 2000 UTC launched from the Air Force Western Test Range (AFWTR). Debris objects in space refer to the collection of defunct objects orbiting the Earth. Examples of debris include non-operational satellites, rocket bodies, and fragments generated from explosions, collisions, or faulty payload assembly.

Loading next visibility...
Identifier
41502, 2000-055MA
Orbit
SSO
Country
Flag of USUS
Related business
Manufacturer
Unknown
Mission
Spacecraft
Bus & Motor
Unknown
Mass
Unknown
Launch date (UTC)
Icon of a cake. It is the launch day of the satellite!2000-09-21 (26 years ago)
Launch vehicle
Unknown
Launch site
Air Force Western Test Range (AFWTR)
Object type
Payload
Rocket body
Debris
Shape & HBR
Unknown shape, 0.1 m
Radar Cross Section
Small (<0.1 m²)

Expand to show TLE details & history
Last TLE update: 2 days ago

TLE from 2 days ago
0 NOAA 16 DEB
1 41502U 00055MA  26261.96706379  .00001658  00000-0  73321-3 0  9995
2 41502  98.6463 311.4396 0010069 198.4371 161.6445 14.24536415544685
Epoch: 2026-09-18T23:12Z
TLE epoch observation values (Epoch: 2026-09-18T23:12:34.311Z)
Latitude
0.00002°
Longitude
-34.58572°
Altitude
819.846 km
Speed
7.44 km/s
True Right ascension
20h 45m 45s
True Declination
0° 00' 00"
Sunlit
Object was in full shadow at epoch
Visualization orbit readout
Latitude
Unknown
Longitude
Unknown
Altitude
Unknown
Speed
Unknown
Apparent Right ascension
Unknown
Apparent Declination
Unknown
Sunlit
N/A
Visualization observer readout
Local Sidereal Time
17:10:12
Azimuth
Unknown
Elevation
Unknown
Doppler factor
Unknown
Orbital elements
Apogee altitude
814.436 km
Perigee altitude
799.966 km
Semi-major axis
7,185.338 km
Eccentricity
0.00101
Inclination
98.6463°
RAAN
311.4396°
Arg. of periapsis
198.4371°
True anomaly
161.68079°
Mean anomaly
161.6445°
Eccentric anomaly
161.66265°
Mean motion
3.56346 °/min
Orbital period
101.03 mins
BSTAR
0.00073321
Loading maneuver chart data...
Computing Atmospheric mass density...
Loading historical data...
Loading historical data...
Loading historical data...
Loading historical data...
Loading historical data...
Loading historical data...
Loading historical data...

Documentation

Showing up to 5 results
|